[[{"header":{"parameterUnit":"m.s-1","parameterCategory":1,"la1":30.2991,"la2":30.254,"lo1":-89.0895,"lo2":-89.0444,"dy":0.0017,"dx":0.0017,"nx":28,"ny":28,"refTime":"2024-10-14T21:00:00:Z","depth":0,"parameterNumber":2,"parameterNumberName":"U-component_of_WINDS"},"data":[0,0,0,0,0,0,0,0,0,0,0,0,0,0,0,0,0,0,0,0,0,0,0,0,0,0,0,0,0,0,0,0,0,0,0,0,0,0,0,0,0,0,0,0,0,0,0,0,0,0,0,0,0,0,0,0,0,0,-4.3905,-4.3905,0,-4.3936,-4.3936,-4.3936,-4.3843,-4.384,-4.3837,-4.3835,-4.3865,-4.3869,-4.3872,0,0,0,0,0,0,0,0,0,0,0,0,0,-4.3764,-4.3767,-4.3905,-4.3905,-4.3906,-4.3936,-4.3936,-4.3937,-4.3844,-4.384,-4.3837,-4.3833,-4.3864,-4.3868,-4.3872,0,0,0,0,0,0,0,0,0,0,0,0,0,-4.3813,-4.3768,-4.3905,-4.3863,-4.3859,-4.3936,-4.3936,-4.3937,-4.3844,-4.384,-4.3836,-4.3832,-4.3863,-4.3868,-4.3873,-4.3991,0,0,-4.3889,-4.3891,0,0,0,0,0,0,0,0,-4.381,-4.3818,-4.3869,-4.3866,-4.3862,-4.3881,-4.3897,-4.3955,-4.3845,-4.385,-4.3835,-4.383,-4.3874,-4.3878,-4.3893,-4.3992,-4.3993,-4.3889,-4.3892,-4.3895,-4.3896,0,0,0,0,0,0,0,-4.3807,-4.3816,-4.3917,-4.3869,-4.3866,-4.3842,-4.3844,-4.3908,-4.3886,-4.3849,-4.3843,-4.3848,-4.3871,-4.3888,-4.3893,-4.3994,-4.3889,-4.3894,-4.3897,-4.3899,-4.4191,-4.4196,0,0,0,0,0,0,-4.3809,-4.3814,-4.3916,-4.3918,-4.3825,-4.3848,-4.3851,-4.3879,-4.3885,-4.3881,-4.3851,-4.3843,-4.3881,-4.3887,-4.3894,-4.4033,-4.3895,-4.39,-4.3903,-4.4187,-4.4192,-4.4197,0,0,0,0,0,0,-4.3807,-4.3819,-4.3915,-4.3864,-4.3875,-4.3855,-4.3888,-4.3882,-4.3899,-4.3886,-4.3881,-4.3873,-4.3878,-4.3886,-4.3967,-4.4033,-4.3902,-4.3907,-4.4181,-4.4189,-4.4195,-4.4312,0,0,0,0,0,0,-4.3803,-4.3819,-4.3864,-4.3866,-4.3878,-4.3989,-4.3892,-4.3886,-4.3909,-4.3898,-4.3905,-4.3902,-4.3876,-4.396,-4.3973,-4.4037,-4.3911,-4.4175,-4.4185,-4.4193,-4.4302,-4.4322,-4.4339,0,0,0,0,0,-4.3798,-4.3895,-4.3867,-4.3879,-4.3934,-4.3993,-4.3999,-4.3967,-4.3914,-4.3959,-4.3951,-4.3902,-4.4023,-4.3969,-4.3983,-4.405,-4.4171,-4.4182,-4.4192,-4.4294,-4.4318,-4.4338,0,0,0,0,0,0,-4.3901,-4.3895,-4.3863,-4.3963,-4.398,-4.3977,-4.4033,-4.3994,-4.4025,-4.4014,-4.3972,-4.3974,-4.4063,-4.4064,-4.4004,-4.4164,-4.4088,-4.4102,-4.4161,-4.4183,-4.4202,-4.42,-4.3915,0,0,0,0,0,-4.3935,-4.3984,-4.3976,-4.4065,-4.4075,-4.4053,-4.4077,-4.4051,-4.4066,-4.4072,-4.4069,-4.4085,-4.4126,-4.4155,-4.4192,-4.4301,-4.4301,-4.4354,-4.4372,-4.4387,-4.44,-4.4458,-4.4481,-4.4232,-4.4232,-4.4231,0,0,-4.4006,-4.4009,-4.4042,-4.4086,-4.4095,-4.4147,-4.4059,-4.4117,-4.4155,-4.408,-4.4157,-4.4156,-4.417,-4.4266,-4.4308,-4.427,-4.4469,-4.44,-4.4413,-4.4417,-4.4471,-4.4495,-4.4516,-4.4239,-4.4238,-4.4236,0,0,-4.4163,-4.417,-4.4246,-4.4257,-4.4272,-4.4256,-4.4275,-4.4278,-4.4275,-4.4351,-4.4297,-4.434,-4.4412,-4.4425,-4.4442,-4.4603,-4.456,-4.4616,-4.4713,-4.477,-4.479,-4.4807,-4.4866,-4.4887,-4.4629,-4.4629,-4.4629,0,-4.425,-4.4326,-4.4289,-4.4351,-4.4372,-4.4307,-4.4384,-4.4396,-4.4423,-4.4438,-4.4395,-4.4485,-4.449,-4.4588,-4.4628,-4.4642,-4.4662,-4.4616,-4.479,-4.4807,-4.4822,-4.4878,-4.49,-4.4636,-4.4635,-4.4634,-4.4634,0,-4.4432,-4.4486,-4.4545,-4.4573,-4.46,-4.4669,-4.4643,-4.4674,-4.4646,-4.4635,-4.4713,-4.4717,-4.4755,-4.4776,-4.4748,-4.487,-4.4846,-4.4797,-4.472,-4.4854,-4.4905,-4.4926,-4.4646,-4.4643,-4.4641,-4.4639,0,0,-4.4656,-4.4663,-4.4685,-4.4697,-4.4709,-4.475,-4.4815,-4.4852,-4.4881,-4.4901,-4.4955,-4.5018,-4.4972,-4.4991,-4.4964,-4.5014,-4.5143,-4.4958,-4.4958,-4.4994,-4.5279,-4.5317,-4.5342,-4.5113,-4.5117,-4.512,-4.5278,0,-4.4811,-4.4925,-4.4894,-4.5007,-4.5056,-4.4995,-4.5052,-4.5065,-4.5057,-4.5097,-4.5086,-4.5132,-4.5068,-4.5079,-4.5126,-4.5117,-4.52,-4.5105,-4.5164,-4.5166,-4.5164,-4.5368,-4.5409,-4.5557,-4.5297,-4.5301,-4.5303,0,-4.5008,-4.5037,-4.5156,-4.516,-4.5179,-4.5231,-4.5263,-4.5301,-4.5315,-4.5305,-4.5326,-4.5288,-4.5353,-4.5274,-4.5363,-4.5299,-4.5321,-4.532,-4.5325,-4.5331,-4.5244,-4.5381,-4.5604,-4.5627,-4.5334,-4.5332,-4.533,0,-4.5161,-4.5229,-4.5309,-4.5321,-4.5327,-4.5366,-4.537,-4.5379,-4.5403,-4.5431,-4.5446,-4.548,-4.5499,-4.5526,-4.5499,-4.5444,-4.5592,-4.5511,-4.5586,-4.5587,-4.5621,-4.5619,-4.5852,-4.5633,-4.5633,-4.5632,-4.5632,0,-4.5338,-4.5414,-4.5378,-4.5427,-4.5509,-4.5472,-4.5555,-4.5552,-4.5561,-4.5608,-4.5556,-4.5602,-4.5562,-4.5604,-4.5583,-4.566,-4.5668,-4.5662,-4.5656,-4.5668,-4.5669,-4.5683,-4.5672,-4.5638,-4.5637,-4.5636,-4.5635,0,-4.5524,-4.5502,-4.5586,-4.5585,-4.5586,-4.5648,-4.5646,-4.5692,-4.5679,-4.574,-4.5752,-4.5732,-4.5779,-4.5754,-4.5801,-4.5787,-4.5887,-4.5866,-4.5883,-4.5878,-4.5955,-4.5949,-4.6206,-4.6238,-4.5997,-4.5999,-4.6001,0,-4.5639,-4.5696,-4.5702,-4.573,-4.5738,-4.5784,-4.5809,-4.5774,-4.5802,-4.5821,-4.5865,-4.5907,-4.5939,-4.6016,-4.6006,-4.6042,-4.6022,-4.611,-4.6028,-4.6038,-4.6025,-4.6023,-4.6029,-4.6127,-4.613,-4.6132,-4.6134,0,-4.5847,-4.5834,-4.5872,-4.5907,-4.5938,-4.5963,-4.5984,-4.601,-4.5975,-4.6009,-4.6056,-4.6081,-4.613,-4.6173,-4.6204,-4.6208,-4.6166,-4.616,-4.6179,-4.6193,-4.6201,-4.6199,-4.593,-4.6155,-4.6153,-4.6151,-4.615,-4.6149,-4.6002,-4.605,-4.6062,-4.6106,-4.6117,-4.6138,-4.6181,-4.6174,-4.6213,-4.6251,-4.6227,-4.6283,-4.6295,-4.6332,-4.6342,-4.6384,-4.6349,-4.6377,-4.6385,-4.6393,-4.6404,-4.6193,-4.639,-4.6389,-4.6389,-4.6388,-4.6388,0,-4.6209,-4.6213,-4.6254,-4.6285,-4.632,-4.6277,-4.6297,-4.6329,-4.6379,-4.6394,-4.6426,-4.6481,-4.6522,-4.6515,-4.6552,-4.6588,-4.657,-4.6599,-4.6597,-4.6598,-4.6432,-4.6412,-4.6613,-4.6613,-4.6613,-4.6613,-4.6613,-4.6613,-4.632,-4.6399,-4.6387,-4.6471,-4.6474,-4.6529,-4.6545,-4.6564,-4.6575,-4.6639,-4.6673,-4.6668,-4.6674,-4.6711,-4.6747,-4.6743,-4.676,-4.6797,-4.6787,-4.6632,-4.661,-4.6589,-4.657,-4.68,-4.6801,-4.6949,-4.695,-4.6952]},{"header":{"parameterUnit":"m.s-1","parameterCategory":1,"la1":30.2991,"la2":30.254,"lo1":-89.0895,"lo2":-89.0444,"dy":0.0017,"dx":0.0017,"nx":28,"ny":28,"refTime":"2024-10-14T21:00:00:Z","depth":0,"parameterNumber":3,"parameterNumberName":"V-component_of_WINDS"},"data":[0,0,0,0,0,0,0,0,0,0,0,0,0,0,0,0,0,0,0,0,0,0,0,0,0,0,0,0,0,0,0,0,0,0,0,0,0,0,0,0,0,0,0,0,0,0,0,0,0,0,0,0,0,0,0,0,0,0,-7.8222,-7.8223,0,-7.8288,-7.8289,-7.829,-7.8209,-7.8206,-7.8203,-7.82,-7.8262,-7.8266,-7.827,0,0,0,0,0,0,0,0,0,0,0,0,0,-7.8019,-7.8023,-7.8222,-7.8223,-7.8224,-7.8288,-7.8289,-7.829,-7.8209,-7.8205,-7.8202,-7.8198,-7.826,-7.8265,-7.8271,0,0,0,0,0,0,0,0,0,0,0,0,0,-7.8099,-7.8025,-7.8222,-7.8191,-7.8189,-7.8288,-7.8289,-7.829,-7.821,-7.8205,-7.8201,-7.8197,-7.8258,-7.8265,-7.8271,-7.8402,0,0,-7.8292,-7.8295,0,0,0,0,0,0,0,0,-7.8094,-7.8106,-7.8195,-7.8194,-7.8191,-7.8236,-7.824,-7.8327,-7.8211,-7.8202,-7.82,-7.8195,-7.8256,-7.8263,-7.8285,-7.8405,-7.8407,-7.8292,-7.8296,-7.8299,-7.8301,0,0,0,0,0,0,0,-7.8089,-7.8103,-7.8248,-7.8196,-7.8194,-7.8172,-7.8178,-7.8256,-7.8253,-7.8202,-7.8197,-7.8206,-7.8254,-7.8279,-7.8286,-7.8408,-7.8292,-7.8298,-7.8302,-7.8305,-7.8638,-7.8643,0,0,0,0,0,0,-7.8088,-7.8099,-7.8246,-7.825,-7.8131,-7.8179,-7.8187,-7.8226,-7.8252,-7.8252,-7.821,-7.8202,-7.8269,-7.8278,-7.8288,-7.8442,-7.8299,-7.8305,-7.8309,-7.8633,-7.8639,-7.8644,0,0,0,0,0,0,-7.8084,-7.8102,-7.8243,-7.8173,-7.8189,-7.8188,-7.8233,-7.823,-7.8254,-7.8258,-7.8256,-7.8236,-7.8266,-7.8278,-7.8374,-7.8443,-7.8308,-7.8314,-7.8627,-7.8635,-7.8642,-7.8752,0,0,0,0,0,0,-7.8078,-7.8101,-7.8152,-7.8175,-7.8193,-7.8331,-7.8237,-7.8234,-7.8266,-7.8257,-7.8282,-7.8281,-7.8264,-7.8365,-7.8381,-7.845,-7.832,-7.8621,-7.8631,-7.8639,-7.8742,-7.8762,-7.8779,0,0,0,0,0,-7.8071,-7.8179,-7.8155,-7.8173,-7.8258,-7.8335,-7.8346,-7.8325,-7.8272,-7.8322,-7.8325,-7.828,-7.8433,-7.8375,-7.8393,-7.8465,-7.8617,-7.8628,-7.8639,-7.8734,-7.8758,-7.8779,0,0,0,0,0,0,-7.8161,-7.8181,-7.8155,-7.8273,-7.8304,-7.8322,-7.8384,-7.8352,-7.8396,-7.8385,-7.8355,-7.8362,-7.8464,-7.8474,-7.8409,-7.8592,-7.8516,-7.8531,-7.8582,-7.8605,-7.8624,-7.8619,-7.8325,0,0,0,0,0,-7.8196,-7.8259,-7.8272,-7.8375,-7.8392,-7.8386,-7.8419,-7.8401,-7.843,-7.8442,-7.8451,-7.848,-7.8534,-7.857,-7.862,-7.8743,-7.8747,-7.8801,-7.8819,-7.8834,-7.8848,-7.8913,-7.8937,-7.868,-7.868,-7.868,0,0,-7.8266,-7.8284,-7.8326,-7.8394,-7.8415,-7.848,-7.8397,-7.8469,-7.8516,-7.8452,-7.8544,-7.8552,-7.8581,-7.8692,-7.8741,-7.8703,-7.8919,-7.8848,-7.8861,-7.8865,-7.8927,-7.8951,-7.8973,-7.8688,-7.8686,-7.8685,0,0,-7.8427,-7.8448,-7.8537,-7.8561,-7.8595,-7.859,-7.8611,-7.8634,-7.8638,-7.873,-7.8683,-7.8738,-7.8832,-7.8855,-7.8879,-7.905,-7.9011,-7.9067,-7.9163,-7.9228,-7.9248,-7.9266,-7.9326,-7.9349,-7.908,-7.908,-7.908,0,-7.851,-7.8608,-7.8586,-7.8662,-7.8693,-7.864,-7.8728,-7.8751,-7.8799,-7.8821,-7.8778,-7.8895,-7.8911,-7.9026,-7.9068,-7.9089,-7.9112,-7.9064,-7.9247,-7.9265,-7.9281,-7.9339,-7.9362,-7.9087,-7.9086,-7.9085,-7.9085,0,-7.8708,-7.8776,-7.8843,-7.8894,-7.8932,-7.9014,-7.9002,-7.9043,-7.9021,-7.9021,-7.9115,-7.9132,-7.9185,-7.9211,-7.919,-7.9323,-7.9298,-7.9252,-7.9175,-7.9313,-7.9366,-7.9388,-7.9096,-7.9094,-7.9092,-7.909,0,0,-7.8928,-7.8966,-7.8991,-7.9013,-7.9047,-7.9098,-7.9177,-7.9231,-7.9266,-7.93,-7.9365,-7.9446,-7.9404,-7.9431,-7.9412,-7.9468,-7.9602,-7.9414,-7.9414,-7.9449,-7.975,-7.9785,-7.9811,-7.9576,-7.958,-7.9584,-7.9747,0,-7.909,-7.9229,-7.9212,-7.9344,-7.9406,-7.9357,-7.9425,-7.9452,-7.9453,-7.9505,-7.9505,-7.9563,-7.9503,-7.9519,-7.9573,-7.9575,-7.9662,-7.9562,-7.9635,-7.9637,-7.9629,-7.9839,-7.9876,-8.003,-7.9768,-7.9772,-7.9774,0,-7.9297,-7.9342,-7.9482,-7.9506,-7.9532,-7.9594,-7.9642,-7.9692,-7.9721,-7.9718,-7.975,-7.972,-7.9797,-7.9719,-7.9824,-7.9757,-7.9785,-7.979,-7.9795,-7.9801,-7.9714,-7.985,-8.0078,-8.0102,-7.9807,-7.9804,-7.9802,0,-7.9444,-7.9539,-7.9635,-7.9655,-7.9686,-7.9731,-7.9746,-7.977,-7.9804,-7.9845,-7.9866,-7.9915,-7.9941,-7.9979,-7.9963,-7.9907,-8.0071,-7.9991,-8.0069,-8.007,-8.0106,-8.0104,-8.0342,-8.0124,-8.0124,-8.0123,-8.0123,0,-7.9627,-7.9714,-7.9701,-7.9761,-7.9856,-7.9834,-7.9929,-7.9937,-7.996,-8.0018,-7.9976,-8.0031,-8.0007,-8.006,-8.0047,-8.0136,-8.0148,-8.0146,-8.0142,-8.0151,-8.0151,-8.0169,-8.0157,-8.0129,-8.0128,-8.0127,-8.0126,0,-7.9808,-7.9803,-7.9904,-7.9925,-7.9933,-8.0002,-8.002,-8.0074,-8.0072,-8.0146,-8.0162,-8.0159,-8.0219,-8.0207,-8.0272,-8.0264,-8.0375,-8.0357,-8.0366,-8.0362,-8.0441,-8.0434,-8.0698,-8.0732,-8.0493,-8.0495,-8.0497,0,-7.9925,-7.9991,-8.0021,-8.0058,-8.0077,-8.0137,-8.0171,-8.0152,-8.0189,-8.0227,-8.0277,-8.0334,-8.0378,-8.0476,-8.0478,-8.0528,-8.0511,-8.06,-8.0518,-8.0524,-8.0512,-8.0509,-8.0515,-8.0616,-8.0619,-8.0621,-8.0623,0,-8.0134,-8.0128,-8.0181,-8.0233,-8.0276,-8.0316,-8.0351,-8.0383,-8.0366,-8.0409,-8.0472,-8.0506,-8.0574,-8.0631,-8.0677,-8.0689,-8.0654,-8.0649,-8.067,-8.0679,-8.0682,-8.0681,-8.0411,-8.0643,-8.0641,-8.064,-8.0639,-8.0638,-8.0286,-8.0343,-8.0373,-8.0433,-8.0458,-8.0492,-8.0544,-8.055,-8.0602,-8.0657,-8.0642,-8.0712,-8.0738,-8.0797,-8.0815,-8.0869,-8.0835,-8.0865,-8.0872,-8.088,-8.089,-8.0673,-8.0877,-8.0876,-8.0875,-8.0875,-8.0875,0,-8.0492,-8.051,-8.0565,-8.0617,-8.0664,-8.0628,-8.0665,-8.0706,-8.077,-8.0798,-8.0844,-8.0915,-8.0969,-8.0976,-8.1028,-8.1069,-8.1054,-8.1083,-8.108,-8.1083,-8.0917,-8.0894,-8.1095,-8.1095,-8.1094,-8.1094,-8.1094,-8.1094,-8.0606,-8.07,-8.0698,-8.0804,-8.0819,-8.089,-8.0914,-8.0945,-8.0968,-8.105,-8.1096,-8.1101,-8.1121,-8.1173,-8.1221,-8.1221,-8.1242,-8.1278,-8.1272,-8.1117,-8.1095,-8.1074,-8.1052,-8.1283,-8.1283,-8.1433,-8.1435,-8.1436]}]]